Location: Cheyres
(46.8153°N, 6.7877°E)
Time: 13:19:51
(UTC+00:00)

Cosmos 990 Rocket - Pass Details

Date: 23 September 2021
Orbit: 746 x 769 km, 74.0° (Epoch: 24 October)

Event Time Altitude Azimuth Distance (km) Brightness Sun altitude
Exits shadow 22:18:03 15° 321° (NW) 1,976 6.7 -41.4°
Drops below altitude 10° 22:20:23 10° 348° (NNW) 2,294 7.1 -41.5°
Sets 22:23:51 0° 12° (NNE) 3,229 7.9 -41.7°
